Weather in Shaytanka

Russia / Sverdlovsk Oblast     59°26′51″N   60°00′46″E
temp.,
°C
wind,
m/s
gust,
m/s
humid.,
%
clouds,
%
prec.,
mm/h
press.,
hPa
HPBL,
m
25 july, sun
sun2523:00+10nw4119399 1.5 1007346
02:00+8nw21094100 0.0 1009225
05:00+7nw2690100 0.0 1011117
08:00+12wnw24670 0.0 1012478
11:00+16nw57395 0.0 10131797
14:00+17nw574077 0.0 10142187
17:00+16wnw574584 0.0 10152079
20:00+14wnw375527 0.0 10151059
26 july, mon
mon2623:00+9w247464 0.0 101666
02:00+10wsw2469100 0.0 1017111
05:00+10wsw2668100 0.0 1016139
08:00+14w3855100 0.0 1016638
11:00+18wnw574397 0.0 10152260
14:00+19w4741100 0.0 10142345
17:00+18w4747100 0.1 10131844
20:00+16w366223 0.0 1013451
27 july, tue
tue2723:00+12sw248678 0.2 101284
02:00+12ssw398728 0.0 1010272
05:00+13wsw51280100 0.0 1008841
08:00+13nw487252 0.1 10091018
11:00+16wnw585017 0.1 10081523
14:00+16wnw684233 0.0 10091963
17:00+14wnw5848100 0.0 10101852
20:00+12nw476444 0.1 10091174
28 july, wed
wed2823:00+8nw387994 0.1 1010544
02:00+7sw2385100 0.0 100998
05:00+8wsw1479100 0.1 1008283
08:00+7nnw389647 1.1 1008553
11:00+11nw476044 1.1 10081411
14:00+13nw464493 0.1 10091992
17:00+13wnw4648100 0.1 10091911
20:00+11wnw4758100 0.1 10101101
29 july, thu
thu2923:00+7w1273100 0.1 100938
02:00+7wsw2375100 0.0 100988
05:00+7wsw1384100 0.0 100891
08:00+9sw1176100 0.0 1008278
11:00+13nw126454 0.0 1007714
14:00+16wnw2349100 0.1 10061507
17:00+17sw1354100 0.1 10051318
20:00+15e237231 0.0 100587